CAPE
-0 nan nan nan nan -0 nan nan nan nan nan nan nan nan nan nan nan nan nan nan nan nan nan nan nan nan nan nan nan nan nan nan nan nan nan nan nan nan nan nan nan nan nan nan nan nan nan nan nan nan nan nan nan nan nan 1 1 3 5 6 6 8 9 9 9 9 8 8 8 8 8 8 8 8 8 7 3 3 1 -0 -0 nan nan nan nan nan
nan nan nan nan nan -0 nan nan nan nan nan nan nan nan nan nan nan nan nan nan nan nan nan nan nan nan nan nan nan nan nan nan nan nan nan nan nan nan nan nan nan nan nan nan nan nan nan nan nan nan nan nan nan nan -0 1 1 2 2 5 5 8 10 10 10 9 9 10 7 7 8 7 8 8 7 6 4 4 2 1 1 0 -0 nan nan nan
nan nan nan -0 -0 nan -0 nan nan nan nan nan nan nan nan nan nan nan nan nan nan nan nan nan nan nan nan nan -0 -0 nan nan nan nan nan nan nan nan nan nan nan nan nan nan nan nan nan nan nan nan nan nan nan nan nan -0 -0 1 1 4 4 6 8 8 8 8 8 9 8 8 6 6 6 6 7 6 6 6 5 5 5 3 2 0 0 nan
nan nan -0 -0 -0 -0 -0 nan nan nan nan nan nan nan nan nan nan nan nan nan nan nan nan nan nan nan nan nan 0 0 nan nan nan nan nan nan nan nan nan nan nan nan nan nan nan nan nan nan nan nan nan nan nan nan nan 0 0 1 1 3 3 4 5 6 6 5 6 7 6 6 6 6 5 5 5 6 8 8 8 8 8 6 4 1 1 1
nan nan 0 0 0 nan nan nan nan nan nan nan nan nan nan nan nan nan nan nan nan nan nan nan nan nan nan nan 0 0 -0 nan nan nan nan nan nan nan nan nan nan nan nan nan nan nan nan nan nan nan nan nan nan nan nan nan nan nan 1 1 1 1 4 4 4 5 6 8 7 7 6 5 5 5 6 7 10 10 11 9 9 7 5 3 3 3
nan 0 0 0 0 nan nan nan nan nan nan nan nan nan nan nan nan nan nan nan nan nan nan nan nan nan nan nan 3 3 1 1 1 1 0 0 nan nan nan nan nan nan nan nan nan nan nan nan nan nan nan nan nan nan -0 -0 -0 0 1 1 1 3 4 6 6 8 9 9 7 7 5 5 5 5 5 7 10 10 11 9 9 5 4 4 4 5
nan 0 -0 -0 -0 nan nan nan nan nan nan nan nan nan nan nan nan nan nan nan nan nan nan nan nan nan nan nan 3 3 2 2 3 3 3 3 2 2 1 0 0 nan nan nan nan nan nan nan nan 0 0 1 2 2 2 3 3 4 3 5 5 5 7 9 9 9 9 7 6 6 5 6 5 5 6 7 10 10 11 9 9 5 3 4 4 6
nan nan nan nan nan nan nan nan nan nan nan nan nan nan nan nan nan nan nan nan nan nan nan nan nan nan nan nan nan nan nan nan nan nan 2 5 10 10 10 10 10 11 11 11 11 11 10 9 9 9 9 10 10 10 10 8 8 8 8 8 8 7 8 7 7 8 8 9 10 10 10 9 8 8 9 8 8 8 8 7 7 5 4 4 4 5
nan nan nan nan nan nan nan nan nan nan nan nan nan nan nan nan nan nan nan nan nan nan nan nan nan nan nan nan nan nan nan 0 nan nan nan nan 0 0 10 15 15 19 16 17 17 16 14 15 15 15 15 15 13 13 11 10 10 8 8 8 8 8 8 8 8 8 9 10 11 11 11 11 10 10 11 9 6 6 5 3 3 4 4 4 4 6
nan nan nan nan nan nan nan nan nan nan nan nan nan nan nan nan nan nan nan nan nan nan nan nan nan nan nan nan nan nan nan 1 10 10 13 nan 15 15 8 8 8 15 18 20 20 19 18 18 18 17 17 15 13 13 10 9 9 9 9 9 9 9 8 10 10 10 11 12 12 12 12 13 13 13 12 8 5 5 2 1 1 1 2 3 3 5
nan nan nan nan nan nan nan nan nan nan nan nan nan nan nan nan nan nan nan nan nan nan nan nan nan nan nan nan nan nan nan nan nan nan 2 1 3 3 2 0 0 7 14 15 15 17 16 15 15 15 15 13 12 12 10 10 10 10 10 10 10 10 10 11 11 11 12 13 14 14 15 14 14 14 11 8 3 3 1 0 0 nan 0 1 1 2
nan nan nan nan nan nan nan nan nan nan nan nan nan nan nan nan nan nan nan nan nan nan nan nan nan nan nan nan nan nan nan nan nan nan nan nan nan nan nan -0 -0 1 1 12 12 12 17 15 15 14 13 12 12 12 11 10 10 10 10 10 10 11 11 12 12 12 15 15 15 15 16 14 13 13 9 6 3 3 2 -0 -0 nan nan nan nan 0
nan nan nan nan nan nan nan nan nan nan nan nan nan nan nan nan nan nan nan nan nan nan nan nan nan nan nan nan nan nan nan nan nan nan nan nan nan nan nan nan nan nan nan -0 -0 nan 12 13 13 10 14 12 13 13 11 10 10 11 10 11 11 11 11 13 13 14 16 17 16 16 15 13 11 11 7 5 4 4 3 1 1 0 nan nan nan 0
nan nan nan nan nan nan nan nan nan nan nan nan nan nan nan nan nan nan nan nan nan nan nan nan nan nan nan nan nan nan nan nan nan nan nan nan nan nan nan nan nan nan nan nan nan nan 2 1 1 nan 13 16 14 14 14 13 13 13 12 12 12 12 12 14 14 16 17 19 16 16 15 12 9 9 7 6 5 5 4 2 2 1 1 1 1 2
nan nan nan nan nan nan nan nan nan nan nan nan nan nan nan nan nan nan nan nan nan nan nan nan nan nan nan nan nan nan nan nan nan nan nan nan nan nan nan nan nan nan nan nan nan -0 1 0 0 nan nan 12 12 12 13 13 13 15 14 15 15 14 13 14 14 17 17 17 15 15 13 10 8 8 7 6 5 5 4 3 3 2 3 4 4 5
nan nan nan nan nan nan nan nan nan nan nan nan nan nan nan nan nan nan nan nan nan nan nan nan nan nan nan nan nan nan nan nan nan nan nan nan nan nan nan nan nan nan nan nan nan nan nan nan nan nan nan 7 16 16 15 17 17 15 15 16 16 15 13 14 14 16 16 15 13 13 11 10 8 8 6 5 4 4 4 3 3 5 6 6 6 6
nan nan nan nan nan nan nan nan nan nan nan nan nan nan nan nan nan nan nan nan nan nan nan nan nan nan nan nan nan nan nan nan nan nan nan nan nan nan nan nan nan -0 -0 0 0 -0 nan nan nan nan nan 13 15 15 15 16 16 16 15 16 16 15 14 15 15 15 15 14 11 11 10 9 6 6 6 4 3 3 3 4 4 7 8 9 9 8
nan nan nan nan nan nan nan nan nan nan nan nan nan nan nan nan nan nan nan nan nan nan nan nan nan nan nan nan nan nan nan nan nan nan nan nan nan nan nan nan nan -0 0 0 0 -0 nan nan nan nan nan 10 13 13 14 14 14 15 16 15 15 15 15 16 16 15 14 11 9 9 8 8 5 5 4 3 3 3 4 6 6 8 9 9 9 8
nan nan nan nan nan nan nan nan nan nan nan nan nan nan nan nan nan nan nan nan nan nan nan nan nan nan nan nan nan nan -0 nan nan nan nan nan nan nan nan nan nan 0 -0 0 0 -0 nan nan nan nan 9 6 10 10 11 12 12 14 15 15 15 15 15 17 17 16 14 12 9 9 8 5 5 5 3 3 4 4 6 8 8 8 8 8 8 7
nan nan nan nan nan nan nan nan nan nan nan nan nan nan nan nan nan nan nan nan nan nan nan nan nan nan nan nan nan nan nan nan nan nan nan nan -0 -0 nan nan nan 0 nan -0 -0 nan nan nan nan nan 8 7 10 10 11 12 12 13 14 15 15 16 15 17 17 17 16 14 11 11 9 6 4 4 4 4 5 5 6 8 8 7 6 6 6 6
nan nan nan nan nan nan nan nan nan nan nan nan nan nan nan nan nan nan nan nan nan nan nan nan nan nan nan nan nan nan nan nan nan nan nan nan nan nan nan nan nan nan -0 nan nan nan nan nan nan nan 4 8 12 12 15 13 13 14 15 17 17 19 19 20 20 19 19 16 13 13 10 6 5 5 5 4 5 5 6 7 7 7 6 5 5 5
nan nan nan nan nan nan nan nan nan nan nan nan nan nan nan nan nan nan nan nan nan nan nan nan nan nan nan nan nan nan nan nan nan nan nan nan nan nan nan nan nan nan -0 0 0 nan nan nan nan nan 1 12 10 10 10 12 12 15 17 17 17 18 21 22 22 21 18 15 11 11 8 6 4 4 4 4 5 5 5 5 5 5 5 4 4 4
nan nan nan nan nan nan nan nan nan nan nan nan nan nan nan nan nan nan nan nan nan nan nan nan nan nan nan nan nan nan nan nan nan nan nan nan nan nan nan nan nan nan nan -0 -0 nan nan -0 -0 nan 0 11 6 6 6 6 6 11 14 18 18 19 21 20 20 18 15 10 7 7 6 4 4 4 4 3 3 3 4 4 4 4 4 4 4 4
nan nan nan nan nan nan nan nan nan nan nan nan nan nan nan nan nan nan nan nan nan nan nan nan nan nan nan nan nan nan nan nan nan nan nan nan nan nan nan nan nan nan nan nan nan nan nan nan nan -0 -0 4 5 5 5 5 5 8 15 18 18 20 18 18 18 13 9 7 5 5 3 3 2 2 1 1 2 2 2 2 2 2 2 3 3 4
nan nan nan nan nan nan nan nan nan nan nan nan nan nan nan nan nan nan nan nan nan nan nan nan nan nan nan nan nan nan nan nan nan nan nan nan nan nan nan nan nan nan nan nan nan nan nan nan nan nan nan nan 4 4 7 10 10 13 18 21 21 20 17 13 13 9 5 3 2 2 1 1 0 0 0 0 0 0 0 1 1 1 2 3 3 3
nan nan nan nan nan nan nan 0 0 0 nan nan nan nan nan nan nan nan nan nan nan nan nan nan nan nan nan nan nan nan nan nan nan nan nan nan nan nan nan nan nan nan nan nan nan nan nan nan nan nan nan nan -0 -0 5 13 13 15 18 18 18 19 14 9 9 5 2 1 0 0 nan nan nan nan nan -0 -0 -0 0 0 0 1 3 4 4 4
1 2 4 3 3 3 3 5 4 4 2 0 nan nan nan nan nan nan nan nan nan nan nan nan nan nan nan nan nan nan nan nan nan nan nan nan nan nan nan nan nan nan nan nan nan nan nan nan nan nan nan nan nan nan 2 12 12 15 17 16 16 12 8 4 4 2 0 nan nan nan nan nan nan nan nan nan nan nan 0 1 1 2 4 6 6 4
8 7 6 6 6 6 6 7 7 7 5 3 1 1 nan nan nan nan nan nan nan nan nan nan nan nan nan nan nan nan nan nan nan nan nan nan nan nan nan nan nan nan nan nan nan nan 1 nan nan nan nan nan nan nan nan 5 5 6 11 10 10 6 3 1 1 nan nan nan nan nan nan nan nan nan nan nan -0 -0 1 2 2 4 5 nan nan nan
2 4 7 9 9 10 10 10 10 10 9 6 2 2 nan nan nan nan nan nan nan nan nan nan nan nan nan nan nan nan nan nan nan nan nan nan nan nan nan nan nan nan nan nan nan nan nan nan nan nan nan nan nan nan nan nan nan nan 5 4 4 2 -0 nan nan nan nan nan nan nan nan nan nan nan nan -0 1 1 3 4 4 5 2 nan nan nan
nan nan nan 0 0 2 11 8 12 12 12 8 4 4 nan nan nan nan nan nan nan nan nan nan nan nan nan nan nan nan nan nan nan nan nan nan nan nan nan nan nan nan nan nan nan nan nan nan nan nan nan nan nan nan nan nan nan nan nan 0 0 nan nan nan nan nan nan nan nan nan nan nan nan nan nan 1 3 3 4 5 5 5 nan nan nan nan
nan nan nan nan nan nan nan nan 1 1 19 16 4 4 nan nan nan nan nan nan nan nan nan nan nan nan nan nan nan nan nan nan nan nan nan nan nan nan nan nan nan nan nan nan nan nan nan nan nan nan nan nan nan nan nan nan nan nan nan nan nan nan nan nan nan nan nan nan nan nan nan nan nan nan 0 1 3 3 4 4 4 0 nan nan nan nan
nan nan nan nan nan nan nan nan nan nan nan nan nan nan nan nan nan nan nan nan nan nan nan nan nan nan nan nan nan nan nan nan nan nan nan nan nan nan nan nan nan nan nan nan nan nan nan nan nan nan nan nan nan nan nan nan nan nan nan nan nan nan nan nan nan nan nan nan nan nan nan nan nan nan nan 0 1 1 1 2 2 2 nan nan nan nan
nan nan nan nan nan nan nan nan nan nan nan nan nan nan nan nan nan nan nan nan nan nan nan nan nan nan nan nan nan nan nan nan nan nan nan nan nan nan nan nan nan nan nan nan nan nan nan nan nan nan nan nan nan nan nan nan nan nan nan nan nan nan nan nan nan nan nan nan nan nan nan nan nan nan nan nan nan nan 1 1 1 1 nan nan nan nan
nan nan nan nan nan nan nan nan nan nan nan nan nan nan nan nan nan nan nan nan nan nan nan nan nan nan nan nan nan nan nan nan nan nan nan nan nan nan nan nan nan nan nan nan nan nan nan nan nan nan nan nan nan nan nan nan nan nan nan nan nan nan nan nan nan nan nan nan nan nan nan nan nan nan nan nan nan nan nan 0 0 0 0 nan nan nan
nan nan nan nan nan nan nan nan nan nan nan nan nan nan nan nan nan nan nan nan nan nan nan nan nan nan nan nan nan nan nan nan nan nan nan nan nan nan nan nan nan nan nan nan nan nan nan nan nan nan nan nan nan nan nan nan nan nan nan nan nan nan nan nan nan nan nan nan nan nan nan nan nan nan nan nan nan nan nan nan nan nan nan nan nan nan
nan nan nan nan nan nan nan nan nan nan nan nan nan nan nan nan nan nan nan nan nan nan nan nan nan nan nan nan nan nan nan nan nan nan nan nan nan nan nan nan nan nan nan nan nan nan nan nan nan nan nan nan nan nan nan nan nan nan nan nan nan nan nan nan nan nan nan nan nan nan nan nan nan nan nan nan nan nan nan nan nan nan nan nan nan nan
nan nan nan nan nan nan nan nan nan nan nan nan nan nan nan nan nan nan nan nan nan nan nan nan nan nan nan nan nan nan nan nan nan nan nan nan nan nan nan nan nan nan nan nan nan nan nan nan nan nan nan nan nan nan nan nan nan nan nan nan nan nan nan nan nan nan nan nan nan nan nan nan nan nan nan nan nan nan nan nan nan nan nan nan nan nan
nan nan nan nan nan nan nan nan nan nan nan nan nan nan nan nan nan nan nan nan nan nan nan nan nan nan 0 -0 nan nan nan nan nan nan nan nan nan nan nan nan nan nan nan nan nan nan nan nan nan nan nan nan nan nan nan nan nan nan nan nan nan nan nan nan nan nan nan nan nan nan nan nan nan nan nan nan nan nan nan nan nan nan nan nan nan nan
nan nan nan nan nan nan nan nan nan nan nan nan nan nan nan nan nan nan nan nan nan nan nan nan nan nan nan nan nan nan nan nan nan nan nan nan nan nan nan nan nan nan nan nan nan nan nan nan nan nan nan nan nan nan nan nan nan nan nan nan nan nan nan nan nan nan nan nan nan nan nan nan nan nan nan nan nan nan nan nan nan nan nan nan nan nan
nan nan nan nan nan nan nan nan nan nan nan nan nan nan nan nan nan nan nan nan nan nan nan nan nan nan nan nan nan nan nan nan nan nan nan nan nan nan nan nan nan nan nan nan nan nan nan nan nan nan nan nan nan nan nan nan nan nan nan nan nan nan nan nan nan nan nan nan nan nan nan nan nan nan nan nan nan nan nan nan nan nan nan nan nan nan
nan nan nan nan nan nan nan nan nan nan nan nan nan nan nan nan nan nan nan nan nan nan nan nan nan nan nan nan nan nan nan nan nan nan nan nan nan nan nan nan nan nan nan nan nan nan nan nan nan nan nan nan nan nan nan nan nan nan nan nan nan nan nan nan nan nan nan nan nan nan nan nan nan nan nan nan nan nan nan nan nan nan nan nan nan nan
nan nan nan nan nan nan nan nan nan nan nan nan nan nan nan nan nan nan nan nan nan nan nan nan nan nan nan nan nan nan nan nan nan nan nan nan nan nan nan nan nan nan nan nan nan nan nan nan nan nan nan nan nan nan nan nan nan nan nan nan nan nan nan nan nan nan nan nan nan nan nan nan nan nan nan nan nan nan nan nan nan nan nan nan nan nan
nan nan nan nan nan nan nan nan nan nan nan nan nan nan nan nan nan nan nan nan nan nan nan nan nan nan nan nan nan nan nan nan nan nan nan nan nan nan nan nan nan nan nan nan nan nan nan nan nan nan nan nan nan nan nan nan nan nan nan nan nan nan nan nan nan nan nan nan nan nan nan nan nan nan nan nan nan nan nan nan nan nan nan nan nan nan
nan nan nan nan nan nan nan nan nan nan nan nan nan nan nan nan nan nan nan nan nan nan nan nan nan nan nan nan nan nan nan nan nan nan nan nan nan nan nan nan nan nan nan nan nan nan nan nan nan nan nan nan nan nan nan nan nan nan nan nan nan nan nan nan nan nan nan nan nan nan nan nan nan nan nan nan nan nan nan nan nan nan nan nan nan nan
nan nan nan nan nan nan nan nan nan nan nan nan nan nan nan nan nan nan nan nan nan nan nan nan nan nan nan nan nan nan nan nan nan nan nan 0 0 0 nan nan nan nan nan nan nan nan nan nan nan nan nan nan nan nan nan nan nan nan nan nan nan nan nan nan nan nan nan nan nan nan nan nan nan nan nan nan nan nan nan nan nan nan nan nan nan nan
nan nan nan nan nan nan nan nan nan nan nan nan nan nan nan nan nan nan nan nan nan nan nan nan nan nan nan nan nan nan nan nan nan nan nan nan nan nan nan nan nan nan nan nan nan nan nan nan nan nan nan nan nan nan nan nan nan nan nan nan nan nan nan nan nan nan nan nan nan nan nan nan nan nan nan nan nan nan nan nan nan nan nan nan nan nan
nan nan nan nan nan nan nan nan nan nan nan nan nan nan nan nan nan nan nan nan nan nan nan nan nan nan nan nan nan nan nan nan nan nan nan nan nan nan nan nan nan nan nan nan nan nan nan nan nan nan nan nan nan nan nan nan nan nan nan nan nan nan nan nan nan nan nan nan nan nan nan nan nan nan nan nan nan nan nan nan nan nan nan nan nan nan
nan nan nan nan nan nan nan nan nan nan nan nan nan nan nan nan nan nan nan nan nan nan nan nan nan nan nan nan nan nan nan nan nan nan nan nan nan nan nan nan nan nan nan nan nan nan nan nan nan nan nan nan nan nan nan nan nan nan nan nan nan nan nan nan nan nan nan nan nan nan nan nan nan nan nan nan nan nan nan nan nan nan nan nan nan nan
nan nan nan nan nan nan nan nan nan nan nan nan nan nan nan nan nan nan nan nan nan nan nan nan nan nan nan nan nan nan nan nan nan nan nan nan nan nan nan nan nan nan nan nan nan nan nan nan nan nan nan nan nan nan nan nan nan nan nan nan nan nan nan nan nan nan nan nan nan nan nan nan nan nan nan nan nan nan nan nan nan nan nan nan nan nan
nan nan nan nan nan nan nan nan nan nan nan nan nan nan nan nan nan nan nan nan nan nan nan nan nan nan nan nan nan nan nan nan nan nan nan nan nan nan nan nan nan nan nan nan nan nan nan nan nan nan nan nan nan nan nan nan nan nan nan nan nan nan nan nan nan nan nan nan nan nan nan nan nan nan nan nan nan nan nan nan nan nan nan nan nan nan
nan nan nan nan nan nan nan nan nan nan nan nan nan nan nan nan nan nan nan nan nan nan nan nan nan nan nan nan nan nan nan nan nan nan nan nan nan nan nan nan nan nan nan nan nan nan nan nan nan nan nan nan nan nan nan nan nan nan nan nan nan nan nan nan nan nan nan nan nan nan nan nan nan nan nan nan nan nan nan nan nan nan nan nan nan nan
CIN
-0 nan nan nan nan 0 nan nan nan nan nan nan nan nan nan nan nan nan nan nan nan nan nan nan nan nan nan nan nan nan nan nan nan nan nan nan nan nan nan nan nan nan nan nan nan nan nan nan nan nan nan nan nan nan nan 0 0 0 0 0 0 0 0 0 0 0 0 0 0 0 0 0 0 0 0 0 0 0 0 0 0 nan nan nan nan nan
nan nan nan nan nan 0 nan nan nan nan nan nan nan nan nan nan nan nan nan nan nan nan nan nan nan nan nan nan nan nan nan nan nan nan nan nan nan nan nan nan nan nan nan nan nan nan nan nan nan nan nan nan nan nan -1 -0 -0 0 0 0 0 0 0 0 0 0 0 0 0 0 0 0 0 0 0 0 0 0 0 0 0 0 0 nan nan nan
nan nan nan 0 0 nan 0 nan nan nan nan nan nan nan nan nan nan nan nan nan nan nan nan nan nan nan nan nan 0 0 nan nan nan nan nan nan nan nan nan nan nan nan nan nan nan nan nan nan nan nan nan nan nan nan nan -1 -1 -0 -0 0 0 0 0 0 0 0 0 0 0 0 0 0 0 0 0 0 0 0 0 0 0 0 0 0 0 nan
nan nan 0 -0 -0 -0 0 nan nan nan nan nan nan nan nan nan nan nan nan nan nan nan nan nan nan nan nan nan 0 0 nan nan nan nan nan nan nan nan nan nan nan nan nan nan nan nan nan nan nan nan nan nan nan nan nan -1 -1 -1 -0 -0 -0 0 0 0 0 0 0 0 0 0 0 0 0 0 0 0 0 0 0 0 0 0 0 0 0 0
nan nan 0 -0 -0 nan nan nan nan nan nan nan nan nan nan nan nan nan nan nan nan nan nan nan nan nan nan nan 0 0 0 nan nan nan nan nan nan nan nan nan nan nan nan nan nan nan nan nan nan nan nan nan nan nan nan nan nan nan -1 -0 -0 -0 0 0 0 0 0 0 0 0 0 0 0 0 0 0 0 0 0 0 0 0 0 0 0 0
nan 0 0 -0 -0 nan nan nan nan nan nan nan nan nan nan nan nan nan nan nan nan nan nan nan nan nan nan nan 0 0 0 0 0 0 0 0 nan nan nan nan nan nan nan nan nan nan nan nan nan nan nan nan nan nan -1 -1 -1 -0 -0 0 0 0 0 0 0 0 0 0 0 0 0 0 0 0 0 0 0 0 0 0 0 0 0 0 0 0
nan 0 -0 -0 -0 nan nan nan nan nan nan nan nan nan nan nan nan nan nan nan nan nan nan nan nan nan nan nan 0 0 0 -0 0 0 0 0 0 0 0 0 0 nan nan nan nan nan nan nan nan -0 -0 -0 0 0 0 0 0 0 0 0 0 0 0 0 0 0 0 0 0 0 0 0 0 0 0 0 0 0 0 0 0 0 0 0 0 0
nan nan nan nan nan nan nan nan nan nan nan nan nan nan nan nan nan nan nan nan nan nan nan nan nan nan nan nan nan nan nan nan nan nan 0 0 0 0 0 0 0 0 0 0 0 0 0 0 0 0 0 0 0 0 0 0 0 0 0 0 0 0 0 0 0 0 0 0 0 0 0 0 0 0 0 0 0 0 0 0 0 0 0 0 0 0
nan nan nan nan nan nan nan nan nan nan nan nan nan nan nan nan nan nan nan nan nan nan nan nan nan nan nan nan nan nan nan -0 nan nan nan nan -0 -0 0 0 0 0 0 0 0 0 0 0 0 0 0 0 0 0 0 0 0 0 0 0 0 0 0 0 0 0 0 0 0 0 0 0 0 0 0 0 0 0 0 0 0 0 0 0 0 0
nan nan nan nan nan nan nan nan nan nan nan nan nan nan nan nan nan nan nan nan nan nan nan nan nan nan nan nan nan nan nan 0 0 0 0 nan 0 0 0 -0 -0 0 0 0 0 0 0 0 0 0 0 0 0 0 0 0 0 0 0 0 0 0 0 0 0 0 0 0 0 0 0 0 0 0 0 0 0 0 0 0 0 0 0 0 0 0
nan nan nan nan nan nan nan nan nan nan nan nan nan nan nan nan nan nan nan nan nan nan nan nan nan nan nan nan nan nan nan nan nan nan 0 0 0 0 -0 -1 -1 -0 0 0 0 0 0 0 0 0 0 0 0 0 0 0 0 0 0 0 0 0 0 0 0 0 0 0 0 0 0 0 0 0 0 0 0 0 0 0 0 nan 0 0 0 0
nan nan nan nan nan nan nan nan nan nan nan nan nan nan nan nan nan nan nan nan nan nan nan nan nan nan nan nan nan nan nan nan nan nan nan nan nan nan nan -0 -0 0 -0 0 0 0 0 0 0 0 0 0 0 0 0 0 0 0 0 0 0 0 0 0 0 0 0 0 0 0 0 0 0 0 0 0 0 0 0 0 0 nan nan nan nan 0
nan nan nan nan nan nan nan nan nan nan nan nan nan nan nan nan nan nan nan nan nan nan nan nan nan nan nan nan nan nan nan nan nan nan nan nan nan nan nan nan nan nan nan -0 -0 nan 0 0 0 0 0 0 0 0 0 0 0 0 0 0 0 0 0 0 0 0 0 0 0 0 0 0 0 0 0 0 0 0 0 0 0 0 nan nan nan 0
nan nan nan nan nan nan nan nan nan nan nan nan nan nan nan nan nan nan nan nan nan nan nan nan nan nan nan nan nan nan nan nan nan nan nan nan nan nan nan nan nan nan nan nan nan nan 0 0 0 nan 0 0 0 0 0 0 0 0 0 0 0 0 0 0 0 0 0 0 0 0 0 0 0 0 0 0 0 0 0 0 0 0 0 0 0 0
nan nan nan nan nan nan nan nan nan nan nan nan nan nan nan nan nan nan nan nan nan nan nan nan nan nan nan nan nan nan nan nan nan nan nan nan nan nan nan nan nan nan nan nan nan -0 0 0 0 nan nan -0 0 0 0 0 0 0 0 0 0 0 0 0 0 0 0 0 0 0 0 0 0 0 0 0 0 0 0 0 0 0 0 0 0 0
nan nan nan nan nan nan nan nan nan nan nan nan nan nan nan nan nan nan nan nan nan nan nan nan nan nan nan nan nan nan nan nan nan nan nan nan nan nan nan nan nan nan nan nan nan nan nan nan nan nan nan -0 0 0 0 0 0 0 0 0 0 0 0 0 0 0 0 0 0 0 0 0 0 0 0 0 0 0 0 0 0 0 0 0 0 0
nan nan nan nan nan nan nan nan nan nan nan nan nan nan nan nan nan nan nan nan nan nan nan nan nan nan nan nan nan nan nan nan nan nan nan nan nan nan nan nan nan -0 -0 -0 -0 -0 nan nan nan nan nan 0 0 0 0 0 0 0 0 0 0 0 0 0 0 0 0 0 0 0 0 0 0 0 0 0 0 0 0 0 0 0 0 0 0 0
nan nan nan nan nan nan nan nan nan nan nan nan nan nan nan nan nan nan nan nan nan nan nan nan nan nan nan nan nan nan nan nan nan nan nan nan nan nan nan nan nan -0 -0 0 0 -0 nan nan nan nan nan 0 0 0 0 0 0 0 0 0 0 0 0 0 0 0 0 0 0 0 0 0 0 0 0 0 0 0 0 0 0 0 0 0 0 0
nan nan nan nan nan nan nan nan nan nan nan nan nan nan nan nan nan nan nan nan nan nan nan nan nan nan nan nan nan nan 0 nan nan nan nan nan nan nan nan nan nan -0 -0 -0 -0 -0 nan nan nan nan 0 0 0 0 0 0 0 0 0 0 0 0 0 0 0 0 0 0 0 0 0 0 0 0 0 0 0 0 0 0 0 0 0 0 0 0
nan nan nan nan nan nan nan nan nan nan nan nan nan nan nan nan nan nan nan nan nan nan nan nan nan nan nan nan nan nan nan nan nan nan nan nan 0 0 nan nan nan -0 nan 0 0 nan nan nan nan nan 0 0 0 0 0 0 0 0 0 0 0 0 0 0 0 0 0 0 0 0 0 0 0 0 0 0 0 0 0 0 0 0 0 0 0 0
nan nan nan nan nan nan nan nan nan nan nan nan nan nan nan nan nan nan nan nan nan nan nan nan nan nan nan nan nan nan nan nan nan nan nan nan nan nan nan nan nan nan -0 nan nan nan nan nan nan nan -0 -0 0 0 0 0 0 0 0 0 0 0 0 0 0 0 0 0 0 0 0 0 0 0 0 0 0 0 0 0 0 0 0 0 0 0
nan nan nan nan nan nan nan nan nan nan nan nan nan nan nan nan nan nan nan nan nan nan nan nan nan nan nan nan nan nan nan nan nan nan nan nan nan nan nan nan nan nan -0 0 0 nan nan nan nan nan -2 0 0 0 0 0 0 0 0 0 0 0 0 0 0 0 0 0 0 0 0 0 0 0 0 0 0 0 0 0 0 0 0 0 0 0
nan nan nan nan nan nan nan nan nan nan nan nan nan nan nan nan nan nan nan nan nan nan nan nan nan nan nan nan nan nan nan nan nan nan nan nan nan nan nan nan nan nan nan 0 0 nan nan 0 0 nan 0 0 0 0 0 0 0 0 0 0 0 0 0 0 0 0 0 0 0 0 0 0 0 0 0 0 0 0 0 0 0 0 0 0 0 0
nan nan nan nan nan nan nan nan nan nan nan nan nan nan nan nan nan nan nan nan nan nan nan nan nan nan nan nan nan nan nan nan nan nan nan nan nan nan nan nan nan nan nan nan nan nan nan nan nan 0 -0 0 0 0 0 0 0 0 0 0 0 0 0 0 0 0 0 0 0 0 0 0 0 0 0 0 0 0 0 0 0 0 0 0 0 0
nan nan nan nan nan nan nan nan nan nan nan nan nan nan nan nan nan nan nan nan nan nan nan nan nan nan nan nan nan nan nan nan nan nan nan nan nan nan nan nan nan nan nan nan nan nan nan nan nan nan nan nan -0 -0 0 0 0 0 0 0 0 0 0 0 0 0 0 0 0 0 0 0 0 0 0 0 0 0 0 0 0 0 0 0 0 0
nan nan nan nan nan nan nan 0 0 0 nan nan nan nan nan nan nan nan nan nan nan nan nan nan nan nan nan nan nan nan nan nan nan nan nan nan nan nan nan nan nan nan nan nan nan nan nan nan nan nan nan nan 0 0 -1 0 0 0 0 0 0 0 0 0 0 0 0 0 0 0 nan nan nan nan nan -0 -0 -0 0 0 0 0 0 -0 -0 -4
0 0 0 0 0 0 0 0 0 0 0 0 nan nan nan nan nan nan nan nan nan nan nan nan nan nan nan nan nan nan nan nan nan nan nan nan nan nan nan nan nan nan nan nan nan nan nan nan nan nan nan nan nan nan -0 0 0 0 0 0 0 0 0 0 0 0 0 nan nan nan nan nan nan nan nan nan nan nan 0 0 0 0 0 0 0 -3
0 0 0 0 0 0 0 0 0 0 0 0 0 0 nan nan nan nan nan nan nan nan nan nan nan nan nan nan nan nan nan nan nan nan nan nan nan nan nan nan nan nan nan nan nan nan -0 nan nan nan nan nan nan nan nan -3 -3 -2 0 0 0 0 0 0 0 nan nan nan nan nan nan nan nan nan nan nan 0 0 0 0 0 0 -2 nan nan nan
0 0 0 0 0 0 0 0 0 0 0 0 0 0 nan nan nan nan nan nan nan nan nan nan nan nan nan nan nan nan nan nan nan nan nan nan nan nan nan nan nan nan nan nan nan nan nan nan nan nan nan nan nan nan nan nan nan nan -1 0 0 0 -0 nan nan nan nan nan nan nan nan nan nan nan nan -0 0 0 0 0 0 0 -9 nan nan nan
nan nan nan 0 0 0 0 0 0 0 0 0 0 0 nan nan nan nan nan nan nan nan nan nan nan nan nan nan nan nan nan nan nan nan nan nan nan nan nan nan nan nan nan nan nan nan nan nan nan nan nan nan nan nan nan nan nan nan nan 0 0 nan nan nan nan nan nan nan nan nan nan nan nan nan nan 0 0 0 0 0 0 -7 nan nan nan nan
nan nan nan nan nan nan nan nan -3 -3 0 0 0 0 nan nan nan nan nan nan nan nan nan nan nan nan nan nan nan nan nan nan nan nan nan nan nan nan nan nan nan nan nan nan nan nan nan nan nan nan nan nan nan nan nan nan nan nan nan nan nan nan nan nan nan nan nan nan nan nan nan nan nan nan -0 0 0 0 0 0 0 -14 nan nan nan nan
nan nan nan nan nan nan nan nan nan nan nan nan nan nan nan nan nan nan nan nan nan nan nan nan nan nan nan nan nan nan nan nan nan nan nan nan nan nan nan nan nan nan nan nan nan nan nan nan nan nan nan nan nan nan nan nan nan nan nan nan nan nan nan nan nan nan nan nan nan nan nan nan nan nan nan 0 0 0 0 0 0 -0 nan nan nan nan
nan nan nan nan nan nan nan nan nan nan nan nan nan nan nan nan nan nan nan nan nan nan nan nan nan nan nan nan nan nan nan nan nan nan nan nan nan nan nan nan nan nan nan nan nan nan nan nan nan nan nan nan nan nan nan nan nan nan nan nan nan nan nan nan nan nan nan nan nan nan nan nan nan nan nan nan nan nan 0 0 0 0 nan nan nan nan
nan nan nan nan nan nan nan nan nan nan nan nan nan nan nan nan nan nan nan nan nan nan nan nan nan nan nan nan nan nan nan nan nan nan nan nan nan nan nan nan nan nan nan nan nan nan nan nan nan nan nan nan nan nan nan nan nan nan nan nan nan nan nan nan nan nan nan nan nan nan nan nan nan nan nan nan nan nan nan 0 0 0 0 nan nan nan
nan nan nan nan nan nan nan nan nan nan nan nan nan nan nan nan nan nan nan nan nan nan nan nan nan nan nan nan nan nan nan nan nan nan nan nan nan nan nan nan nan nan nan nan nan nan nan nan nan nan nan nan nan nan nan nan nan nan nan nan nan nan nan nan nan nan nan nan nan nan nan nan nan nan nan nan nan nan nan nan nan nan nan nan nan nan
nan nan nan nan nan nan nan nan nan nan nan nan nan nan nan nan nan nan nan nan nan nan nan nan nan nan nan nan nan nan nan nan nan nan nan nan nan nan nan nan nan nan nan nan nan nan nan nan nan nan nan nan nan nan nan nan nan nan nan nan nan nan nan nan nan nan nan nan nan nan nan nan nan nan nan nan nan nan nan nan nan nan nan nan nan nan
nan nan nan nan nan nan nan nan nan nan nan nan nan nan nan nan nan nan nan nan nan nan nan nan nan nan nan nan nan nan nan nan nan nan nan nan nan nan nan nan nan nan nan nan nan nan nan nan nan nan nan nan nan nan nan nan nan nan nan nan nan nan nan nan nan nan nan nan nan nan nan nan nan nan nan nan nan nan nan nan nan nan nan nan nan nan
nan nan nan nan nan nan nan nan nan nan nan nan nan nan nan nan nan nan nan nan nan nan nan nan nan nan -0 -0 nan nan nan nan nan nan nan nan nan nan nan nan nan nan nan nan nan nan nan nan nan nan nan nan nan nan nan nan nan nan nan nan nan nan nan nan nan nan nan nan nan nan nan nan nan nan nan nan nan nan nan nan nan nan nan nan nan nan
nan nan nan nan nan nan nan nan nan nan nan nan nan nan nan nan nan nan nan nan nan nan nan nan nan nan nan nan nan nan nan nan nan nan nan nan nan nan nan nan nan nan nan nan nan nan nan nan nan nan nan nan nan nan nan nan nan nan nan nan nan nan nan nan nan nan nan nan nan nan nan nan nan nan nan nan nan nan nan nan nan nan nan nan nan nan
nan nan nan nan nan nan nan nan nan nan nan nan nan nan nan nan nan nan nan nan nan nan nan nan nan nan nan nan nan nan nan nan nan nan nan nan nan nan nan nan nan nan nan nan nan nan nan nan nan nan nan nan nan nan nan nan nan nan nan nan nan nan nan nan nan nan nan nan nan nan nan nan nan nan nan nan nan nan nan nan nan nan nan nan nan nan
nan nan nan nan nan nan nan nan nan nan nan nan nan nan nan nan nan nan nan nan nan nan nan nan nan nan nan nan nan nan nan nan nan nan nan nan nan nan nan nan nan nan nan nan nan nan nan nan nan nan nan nan nan nan nan nan nan nan nan nan nan nan nan nan nan nan nan nan nan nan nan nan nan nan nan nan nan nan nan nan nan nan nan nan nan nan
nan nan nan nan nan nan nan nan nan nan nan nan nan nan nan nan nan nan nan nan nan nan nan nan nan nan nan nan nan nan nan nan nan nan nan nan nan nan nan nan nan nan nan nan nan nan nan nan nan nan nan nan nan nan nan nan nan nan nan nan nan nan nan nan nan nan nan nan nan nan nan nan nan nan nan nan nan nan nan nan nan nan nan nan nan nan
nan nan nan nan nan nan nan nan nan nan nan nan nan nan nan nan nan nan nan nan nan nan nan nan nan nan nan nan nan nan nan nan nan nan nan nan nan nan nan nan nan nan nan nan nan nan nan nan nan nan nan nan nan nan nan nan nan nan nan nan nan nan nan nan nan nan nan nan nan nan nan nan nan nan nan nan nan nan nan nan nan nan nan nan nan nan
nan nan nan nan nan nan nan nan nan nan nan nan nan nan nan nan nan nan nan nan nan nan nan nan nan nan nan nan nan nan nan nan nan nan nan nan nan nan nan nan nan nan nan nan nan nan nan nan nan nan nan nan nan nan nan nan nan nan nan nan nan nan nan nan nan nan nan nan nan nan nan nan nan nan nan nan nan nan nan nan nan nan nan nan nan nan
nan nan nan nan nan nan nan nan nan nan nan nan nan nan nan nan nan nan nan nan nan nan nan nan nan nan nan nan nan nan nan nan nan nan nan 0 0 0 nan nan nan nan nan nan nan nan nan nan nan nan nan nan nan nan nan nan nan nan nan nan nan nan nan nan nan nan nan nan nan nan nan nan nan nan nan nan nan nan nan nan nan nan nan nan nan nan
nan nan nan nan nan nan nan nan nan nan nan nan nan nan nan nan nan nan nan nan nan nan nan nan nan nan nan nan nan nan nan nan nan nan nan nan nan nan nan nan nan nan nan nan nan nan nan nan nan nan nan nan nan nan nan nan nan nan nan nan nan nan nan nan nan nan nan nan nan nan nan nan nan nan nan nan nan nan nan nan nan nan nan nan nan nan
nan nan nan nan nan nan nan nan nan nan nan nan nan nan nan nan nan nan nan nan nan nan nan nan nan nan nan nan nan nan nan nan nan nan nan nan nan nan nan nan nan nan nan nan nan nan nan nan nan nan nan nan nan nan nan nan nan nan nan nan nan nan nan nan nan nan nan nan nan nan nan nan nan nan nan nan nan nan nan nan nan nan nan nan nan nan
nan nan nan nan nan nan nan nan nan nan nan nan nan nan nan nan nan nan nan nan nan nan nan nan nan nan nan nan nan nan nan nan nan nan nan nan nan nan nan nan nan nan nan nan nan nan nan nan nan nan nan nan nan nan nan nan nan nan nan nan nan nan nan nan nan nan nan nan nan nan nan nan nan nan nan nan nan nan nan nan nan nan nan nan nan nan
nan nan nan nan nan nan nan nan nan nan nan nan nan nan nan nan nan nan nan nan nan nan nan nan nan nan nan nan nan nan nan nan nan nan nan nan nan nan nan nan nan nan nan nan nan nan nan nan nan nan nan nan nan nan nan nan nan nan nan nan nan nan nan nan nan nan nan nan nan nan nan nan nan nan nan nan nan nan nan nan nan nan nan nan nan nan
nan nan nan nan nan nan nan nan nan nan nan nan nan nan nan nan nan nan nan nan nan nan nan nan nan nan nan nan nan nan nan nan nan nan nan nan nan nan nan nan nan nan nan nan nan nan nan nan nan nan nan nan nan nan nan nan nan nan nan nan nan nan nan nan nan nan nan nan nan nan nan nan nan nan nan nan nan nan nan nan nan nan nan nan nan nan
nan nan nan nan nan nan nan nan nan nan nan nan nan nan nan nan nan nan nan nan nan nan nan nan nan nan nan nan nan nan nan nan nan nan nan nan nan nan nan nan nan nan nan nan nan nan nan nan nan nan nan nan nan nan nan nan nan nan nan nan nan nan nan nan nan nan nan nan nan nan nan nan nan nan nan nan nan nan nan nan nan nan nan nan nan nan
Wind_Speed
1 1 1 2 2 2 2 3 3 3 3 3 3 3 3 4 4 5 6 6 5 5 4 4 4 5 5 5 7 9 11 13 15 16 16 16 15 15 15 15 15 16 15 16 16 17 18 20 22 23 25 26 27 27 27 27 27 26 26 25 24 23 23 22 21 20 20 19 18 17 16 15 14 12 11 9 7 6 6 6 6 7 7 7 7 7
2 2 1 2 2 2 2 3 4 4 4 4 3 3 3 4 4 4 5 6 6 5 5 5 5 6 7 6 5 5 7 10 14 17 18 18 18 17 16 16 16 16 16 16 17 18 19 21 22 23 24 25 25 26 26 26 25 25 24 23 23 22 22 21 21 20 20 19 18 18 17 16 14 13 11 9 8 7 6 7 7 8 8 8 8 7
2 1 1 2 2 2 2 3 4 4 5 4 3 3 4 5 5 4 4 5 5 5 5 6 6 7 8 8 9 8 6 4 8 13 16 18 19 18 17 16 16 16 16 16 17 18 19 20 21 22 22 22 22 23 23 23 23 22 22 21 20 20 20 20 19 19 19 19 19 18 17 16 14 13 11 9 8 7 7 8 8 9 9 8 8 8
2 2 2 2 3 3 3 3 3 4 5 5 4 4 5 5 5 4 4 4 5 5 6 7 7 7 7 8 10 13 14 10 5 2 6 10 12 13 13 14 14 15 15 16 16 17 18 19 20 20 20 21 21 21 21 20 20 20 20 19 18 18 17 17 17 18 18 18 18 18 17 16 14 12 10 9 8 8 8 9 9 9 9 9 8 8
2 2 2 2 2 3 3 3 4 4 5 5 5 5 5 5 4 4 4 4 5 5 6 6 7 7 6 6 10 14 18 17 15 12 9 5 3 5 7 9 11 13 15 15 16 17 17 18 19 19 20 20 20 20 20 19 19 19 18 18 17 17 16 15 15 16 16 16 17 17 16 14 13 11 10 9 8 9 9 9 9 9 8 8 8 7
2 2 2 2 2 2 2 3 3 4 4 4 5 5 5 4 4 4 4 5 5 5 5 5 6 7 7 7 10 14 18 19 19 19 18 16 14 12 11 11 11 13 14 15 17 17 18 18 19 19 19 20 20 20 20 20 20 19 19 18 17 17 16 15 15 14 14 14 14 14 13 13 11 10 9 8 8 9 9 9 9 8 8 8 7 7
2 2 2 2 2 2 2 2 2 3 3 3 4 4 5 4 5 5 5 5 4 4 4 5 5 6 7 8 10 12 14 16 18 19 20 19 19 18 17 16 15 15 15 16 16 17 18 18 19 19 19 20 20 20 21 20 20 19 19 18 17 17 16 15 14 13 12 12 12 11 11 10 9 9 8 8 8 8 9 8 8 7 7 7 7 7
2 2 2 2 2 2 2 2 2 2 2 3 3 4 4 4 4 5 5 5 5 4 4 5 5 6 7 7 8 9 9 11 12 13 15 17 18 18 18 18 17 17 16 16 16 16 17 17 18 18 19 19 19 20 20 20 19 19 18 17 17 16 15 14 13 12 11 10 10 10 9 9 8 8 7 7 8 8 8 7 7 7 6 6 7 7
4 3 2 2 2 2 2 2 2 2 2 2 3 4 4 4 4 4 5 5 5 5 4 5 5 6 6 6 7 7 8 9 9 10 11 11 12 14 16 16 17 17 16 16 15 15 15 15 16 16 17 18 18 19 19 19 18 18 17 16 15 15 14 13 12 11 11 10 9 9 8 8 8 8 7 7 7 7 7 6 6 6 6 6 6 6
4 4 3 2 2 2 3 2 2 2 2 2 3 3 3 4 4 4 5 5 5 4 4 5 5 5 5 5 6 6 7 9 12 13 14 13 13 14 14 14 14 14 16 15 15 14 14 13 14 14 15 16 17 18 18 18 17 16 16 15 14 14 13 12 11 11 10 9 9 9 9 8 8 8 8 7 7 6 6 5 5 5 5 5 6 6
4 3 3 2 2 2 2 2 2 2 2 3 3 3 2 2 3 4 5 4 3 3 4 4 4 4 4 4 5 5 6 7 9 11 14 15 15 15 14 13 13 14 15 14 14 13 13 12 12 13 13 14 15 16 16 16 16 15 14 14 13 12 12 11 10 10 9 9 9 9 9 9 8 8 7 7 6 6 5 5 4 4 4 5 6 6
3 3 3 2 2 2 2 2 2 2 2 3 3 2 2 2 2 3 5 4 4 3 3 3 4 4 4 3 4 4 4 5 6 6 8 9 10 10 10 10 10 11 11 11 11 11 12 11 11 11 11 12 13 14 14 14 14 14 13 12 12 11 10 10 9 9 9 9 9 9 8 8 8 7 7 6 6 5 5 5 4 4 5 5 6 7
3 3 3 2 2 2 2 2 2 2 2 2 3 3 2 1 1 2 4 4 4 3 3 3 3 3 4 4 3 3 3 4 4 5 5 6 6 6 5 6 6 6 6 7 7 8 9 9 9 9 10 10 11 12 12 12 12 12 12 11 11 10 9 9 8 8 8 8 8 8 8 7 7 6 6 6 5 5 5 5 5 5 6 6 7 7
3 3 3 3 2 2 3 3 3 3 2 2 2 3 3 3 3 3 4 4 3 3 3 3 3 3 3 3 3 3 2 3 3 4 5 5 4 4 3 4 4 4 4 4 5 6 8 7 5 5 7 9 10 10 10 10 11 11 10 10 9 9 8 8 8 7 7 7 7 7 6 6 6 6 5 5 5 5 6 6 6 6 7 7 8 8
4 4 4 3 3 3 3 3 3 3 2 2 2 3 3 3 3 4 4 4 4 3 3 4 4 3 3 3 3 3 2 2 3 4 5 4 4 4 3 3 4 4 4 4 4 5 6 5 4 4 4 6 7 7 7 8 9 9 9 9 9 8 8 7 7 7 6 6 6 6 6 6 5 5 5 5 5 6 6 6 7 8 8 9 9 9
4 4 4 4 4 3 3 3 3 3 2 3 3 4 4 4 4 4 5 5 4 3 3 4 3 3 2 2 2 2 2 2 3 3 4 3 3 3 3 3 4 4 4 4 4 4 4 4 4 4 4 5 6 7 7 7 7 8 8 8 8 7 7 7 6 6 6 6 6 5 5 5 5 5 5 6 6 6 7 7 8 9 9 10 10 9
3 3 3 4 4 3 3 2 2 3 3 3 3 4 4 4 4 4 4 4 4 3 2 3 3 2 1 1 2 2 1 1 2 3 4 3 2 3 3 2 3 4 4 4 4 3 3 3 3 3 4 5 6 6 6 6 6 7 7 7 6 6 6 6 5 5 5 5 5 5 5 5 5 5 6 6 7 7 8 8 9 10 10 10 10 10
3 3 3 3 4 4 3 3 3 3 3 4 3 3 3 3 3 4 4 3 3 3 2 2 2 2 2 1 1 1 1 1 2 3 4 3 2 2 2 2 3 4 4 3 3 3 2 2 2 2 3 4 4 4 4 4 4 5 6 6 5 5 5 5 5 5 5 5 5 5 5 5 6 6 6 7 7 8 9 9 10 10 11 10 10 9
3 3 3 3 3 4 4 4 4 4 4 4 4 4 3 3 3 3 3 3 3 3 2 2 2 2 2 2 2 1 1 1 2 3 4 3 2 1 2 2 4 5 4 3 2 2 2 2 2 3 4 3 3 3 3 3 4 4 5 5 5 5 5 5 5 5 5 5 5 5 6 6 6 6 7 7 8 9 9 10 10 11 11 10 10 9
4 3 3 3 4 4 4 4 4 5 5 5 5 5 5 4 4 3 3 2 2 2 2 2 2 2 2 2 2 1 0 1 2 3 3 3 2 1 1 1 3 4 4 3 2 1 1 1 1 1 2 2 3 3 3 4 4 4 4 5 5 6 6 6 6 6 6 6 6 6 6 6 6 7 7 8 8 9 9 10 10 10 10 10 9 9
4 3 3 3 4 4 4 4 5 5 6 6 5 5 5 5 4 4 3 3 2 2 2 2 2 2 2 3 3 2 0 1 2 2 2 2 1 1 1 1 2 4 4 3 2 1 1 1 1 1 1 2 3 3 3 3 4 4 4 5 6 6 7 7 7 7 7 7 7 7 6 6 7 7 7 8 8 9 9 10 10 9 9 9 9 8
3 3 3 3 3 3 3 4 5 6 7 6 6 5 5 5 5 5 4 4 3 3 3 3 2 2 3 3 3 1 0 1 2 2 2 2 2 1 1 1 1 3 4 2 2 1 0 1 1 1 2 3 3 2 2 2 2 3 4 4 5 6 7 7 7 7 7 7 7 7 7 7 7 7 7 8 8 9 9 9 9 9 8 8 8 8
2 2 3 2 2 2 3 4 4 5 5 5 5 4 4 4 5 5 4 4 4 4 4 4 4 3 3 3 2 1 1 1 1 2 3 3 2 1 0 0 1 2 2 2 1 1 1 1 1 1 2 2 2 2 1 1 1 2 3 4 5 6 6 6 7 7 7 6 6 6 6 6 7 7 7 7 8 8 8 8 8 8 8 8 8 9
3 3 3 3 3 3 3 4 4 4 3 3 3 3 3 3 3 3 3 4 4 5 5 5 5 4 3 3 2 1 1 1 1 1 2 2 2 2 1 1 2 2 2 2 1 1 1 1 1 1 2 2 1 0 1 2 3 4 4 5 5 5 6 6 6 6 6 6 6 6 6 6 6 6 6 6 7 7 7 7 7 8 8 8 8 9
3 3 3 3 4 4 4 5 5 5 4 4 3 4 4 5 5 5 5 5 5 5 5 5 5 4 2 2 2 1 1 1 1 0 2 2 2 2 1 1 1 2 2 1 1 1 2 1 1 1 1 1 1 1 3 4 5 5 6 6 5 5 5 5 6 6 6 5 5 5 5 5 5 5 5 6 6 6 7 7 7 8 8 8 8 8
6 6 5 6 7 8 9 9 9 9 8 6 5 5 5 6 6 6 5 4 4 5 5 5 4 3 2 2 1 1 0 0 1 0 1 2 3 3 1 1 1 2 2 1 1 1 2 2 1 1 1 1 2 2 3 5 6 6 6 6 6 6 6 5 5 5 5 5 5 4 4 4 4 4 5 5 6 6 7 7 8 8 8 8 7 6
11 10 10 10 11 11 12 12 12 12 12 10 9 8 7 6 6 5 4 4 4 4 5 4 4 3 2 2 1 1 0 0 0 1 0 2 3 3 2 1 1 2 2 1 1 1 2 2 2 1 1 1 2 3 2 3 5 6 6 6 6 6 5 5 5 5 4 4 3 3 3 3 3 4 4 5 6 6 7 7 8 8 7 6 5 3
14 12 11 11 11 12 12 12 13 13 13 13 13 11 8 6 6 5 5 4 4 4 3 4 3 3 2 2 1 1 0 0 0 0 0 2 2 3 2 2 1 2 2 1 1 1 2 2 2 1 1 1 2 3 2 0 2 4 5 5 5 5 5 4 4 3 3 2 2 2 2 2 3 4 4 5 6 6 7 7 7 7 5 3 1 1
14 13 12 11 11 10 11 11 12 12 13 13 12 10 6 4 4 5 5 5 4 4 3 3 3 3 2 2 2 1 1 1 1 1 0 1 2 2 2 2 1 1 2 1 1 1 2 1 1 1 1 1 2 2 3 3 2 1 2 4 4 4 4 3 3 2 2 1 1 1 1 2 3 3 4 5 5 6 6 7 7 5 2 1 1 1
11 11 11 11 10 9 8 7 7 9 12 11 9 7 4 3 3 4 5 5 4 4 4 3 3 3 3 3 2 1 1 1 1 1 1 2 2 2 2 2 1 1 1 2 1 1 1 1 1 1 1 2 2 2 2 3 3 3 3 2 3 3 4 3 3 2 2 1 1 0 1 1 2 3 3 4 5 5 6 6 5 3 2 1 1 1
7 7 7 8 8 8 7 6 5 6 7 8 7 6 4 3 3 3 3 4 4 4 4 4 4 4 3 3 2 1 1 2 2 2 2 2 2 2 2 2 1 0 0 1 2 1 1 0 1 1 1 2 2 2 2 2 2 2 3 2 2 3 4 4 3 3 2 2 1 1 0 1 1 2 3 3 4 4 5 5 4 2 2 2 1 2
6 6 5 5 5 6 6 6 6 6 6 6 6 5 5 4 3 3 2 2 2 3 4 4 4 4 3 2 2 2 1 2 3 3 3 2 2 1 2 2 1 0 1 1 1 2 2 1 1 1 1 1 1 1 1 1 1 2 2 2 2 2 3 4 3 3 2 2 2 1 1 1 1 2 2 3 3 4 4 5 4 3 1 2 2 2
5 5 5 5 5 5 5 5 5 5 5 4 4 4 4 4 4 4 3 2 2 3 4 4 4 3 2 2 2 1 1 1 3 4 4 2 2 1 1 2 2 2 1 2 1 1 2 1 1 1 1 1 1 1 1 1 1 1 1 1 1 1 2 3 3 2 2 2 1 2 2 2 2 2 3 3 3 4 4 5 5 4 2 2 2 2
6 5 5 5 5 5 5 5 5 5 4 4 4 4 4 4 4 4 4 3 3 3 3 3 4 4 3 2 1 1 0 1 3 5 5 3 2 2 2 2 2 2 2 1 2 2 2 1 1 1 1 1 1 1 0 0 0 1 1 0 0 0 1 1 1 1 1 1 1 1 1 2 2 3 3 4 4 5 5 6 6 6 6 3 2 2
5 5 5 4 4 4 5 5 5 5 4 4 4 4 4 3 3 4 4 4 3 3 3 2 3 3 3 3 2 2 1 2 4 5 4 3 2 2 2 2 3 3 3 2 2 1 1 1 1 1 2 1 1 0 1 0 0 0 1 1 1 1 0 0 0 0 1 1 1 1 1 1 1 2 3 4 4 5 6 7 7 8 8 7 5 4
5 5 5 4 4 4 4 4 4 4 4 4 3 3 3 3 3 3 3 3 4 4 4 3 3 2 2 3 3 3 2 3 4 4 4 3 3 2 2 2 2 3 3 2 2 2 2 1 1 2 2 2 1 0 1 1 1 0 1 1 1 1 1 1 1 1 1 1 1 2 2 2 2 2 2 4 5 6 7 7 8 8 9 9 8 7
5 4 4 4 3 4 4 4 4 4 4 3 3 3 3 3 3 3 3 3 4 4 4 4 4 4 4 3 3 3 3 3 3 3 3 3 3 2 2 2 2 3 3 3 3 2 2 2 2 2 2 2 1 1 1 0 1 1 1 1 1 1 1 1 2 2 2 2 2 2 2 2 1 2 2 4 5 5 6 7 8 8 9 9 9 9
4 4 3 3 3 3 3 3 3 3 3 3 3 3 3 3 4 4 4 4 4 4 4 4 5 6 8 7 6 5 4 4 4 4 4 3 3 3 3 2 2 2 2 3 3 3 3 2 2 2 1 1 1 1 1 1 0 1 1 1 1 1 2 2 2 2 2 2 2 2 1 1 1 1 2 2 3 3 4 4 5 7 8 8 9 9
4 3 3 3 2 2 3 3 2 2 2 2 2 2 3 4 4 4 4 4 5 5 5 5 5 6 8 8 8 8 7 6 5 5 4 3 3 3 3 3 2 2 2 2 3 3 3 3 3 3 2 1 1 1 0 1 1 1 1 1 1 1 2 2 2 2 2 2 1 1 1 1 1 1 2 2 2 2 3 3 4 5 5 5 6 7
3 3 3 3 2 2 2 2 2 1 1 2 2 3 3 3 4 4 4 5 5 5 5 6 6 6 6 7 7 7 7 5 5 4 3 3 2 2 3 3 3 2 2 2 2 2 3 3 2 2 2 2 2 1 1 1 2 2 1 0 1 1 2 2 2 2 1 1 1 1 1 2 2 2 2 1 2 2 2 3 3 4 4 3 3 4
3 3 2 2 2 2 2 2 1 1 2 2 2 3 3 3 3 3 3 4 4 4 4 5 5 5 5 6 6 6 6 5 5 4 3 3 3 3 3 3 3 3 2 2 2 2 2 3 2 2 2 2 2 2 1 1 2 2 1 1 1 2 2 1 1 1 1 1 1 1 2 2 2 2 2 2 2 2 3 3 3 4 4 2 2 2
3 3 2 1 1 1 1 1 2 2 3 3 3 3 3 2 2 2 2 2 3 3 3 3 3 4 5 5 5 5 6 5 5 5 4 4 4 4 4 3 3 2 2 3 2 2 2 2 2 2 2 2 2 1 1 1 1 0 1 1 1 2 2 2 1 0 0 1 1 2 2 2 2 2 3 3 3 3 3 3 4 5 4 2 2 2
3 2 1 1 1 1 1 2 2 2 3 3 3 2 2 2 2 2 2 2 2 2 2 2 3 3 4 3 4 4 4 5 5 5 5 4 4 4 4 4 3 3 3 3 3 2 2 2 2 1 1 2 1 1 1 1 1 1 1 1 1 0 1 2 2 1 0 1 1 1 1 2 2 2 3 3 3 3 3 4 5 6 5 3 2 2
2 1 1 1 1 1 2 2 3 2 2 2 2 2 2 2 2 2 2 2 2 2 2 2 2 3 4 4 3 3 3 4 4 5 5 5 5 4 4 4 3 3 3 3 2 2 1 2 1 0 0 1 1 1 1 1 1 1 1 1 1 1 1 1 1 1 1 2 2 2 2 2 2 3 3 3 3 3 2 3 3 4 4 4 3 3
2 1 1 1 2 2 3 3 2 2 2 2 2 2 2 2 2 2 2 2 2 2 2 2 2 3 3 2 2 2 2 2 3 4 4 6 6 6 4 4 3 3 3 3 2 2 2 1 0 0 0 1 1 1 2 1 1 1 2 1 1 1 2 1 1 1 2 2 2 2 2 2 2 3 3 3 3 3 3 3 3 4 4 3 3 3
2 2 2 2 2 2 2 2 2 2 2 2 2 1 1 2 1 2 2 2 2 2 1 1 2 3 3 2 2 2 2 2 3 3 3 4 4 4 4 3 3 3 3 2 2 2 2 2 2 2 1 1 1 0 1 2 1 1 1 1 1 1 1 2 2 1 1 2 2 2 2 2 2 2 3 4 4 3 3 3 3 4 4 4 3 3
2 2 2 2 2 2 2 2 2 2 2 2 2 1 1 1 1 2 2 2 2 2 1 2 2 3 2 2 2 2 3 3 2 2 2 3 3 3 3 3 3 3 2 2 1 1 2 2 3 3 3 1 0 1 1 1 1 1 1 1 1 1 1 2 2 1 1 1 2 2 2 2 2 2 3 4 4 3 3 3 3 3 4 4 4 4
3 3 2 2 2 2 2 2 2 2 2 2 2 2 1 1 2 2 2 2 2 2 2 2 2 3 2 2 2 2 3 3 2 2 2 2 2 2 2 2 2 2 2 2 2 1 1 1 2 3 3 3 2 1 1 1 1 1 1 0 0 1 1 2 2 2 1 2 2 2 1 1 2 3 4 4 4 4 3 3 3 3 4 4 4 4
3 2 2 2 2 2 2 2 2 2 2 2 2 2 2 2 3 4 2 2 2 2 2 2 3 3 2 2 2 2 3 3 2 1 1 1 1 1 1 2 2 2 2 2 2 2 1 1 1 2 3 3 3 2 1 1 1 0 0 0 0 1 1 2 2 2 2 2 2 2 1 1 2 2 3 4 5 5 5 4 3 3 3 3 3 3
3 2 2 2 2 2 2 2 2 2 2 2 2 2 2 2 2 2 2 2 2 2 2 2 3 3 3 2 2 2 3 2 2 1 1 1 1 1 1 1 2 2 3 3 3 3 2 2 1 1 2 4 4 3 2 1 0 0 1 0 0 1 1 2 2 2 2 2 2 2 2 2 2 2 2 4 5 6 6 5 4 3 3 3 3 3
3 2 2 2 2 1 1 1 1 2 2 2 2 2 2 2 2 2 2 2 2 2 2 2 3 3 3 2 2 2 2 2 2 2 1 1 1 1 1 1 2 2 2 2 3 3 2 2 2 2 2 3 4 4 3 2 2 1 1 1 1 1 2 2 2 3 3 3 3 3 2 2 2 2 2 3 5 6 6 5 4 3 3 2 2 3
Wind_Direction
81 91 78 71 81 83 46 32 55 80 82 64 51 42 40 45 44 39 34 32 25 15 6 356 348 339 324 290 268 254 246 241 238 237 236 235 234 232 228 222 216 211 205 199 193 186 181 176 173 170 168 166 164 162 160 158 157 156 155 155 154 154 153 152 151 150 149 149 147 146 143 141 140 141 143 149 158 173 190 206 214 217 216 214 214 215
77 72 46 43 62 83 76 37 49 68 82 73 62 53 51 54 49 41 34 31 27 22 15 5 3 5 6 355 331 295 268 247 239 235 233 231 229 226 221 215 209 203 198 192 187 182 177 173 170 167 165 164 162 161 159 157 156 155 154 154 153 153 153 153 152 150 149 148 145 141 138 136 137 139 143 150 161 176 195 212 222 225 225 222 220 219
109 83 48 33 44 62 84 58 60 70 81 79 72 64 62 62 56 46 35 30 27 26 23 16 14 16 18 16 13 8 359 289 245 235 231 227 223 218 211 204 197 191 186 182 177 173 170 166 163 160 159 158 157 155 154 153 152 151 151 150 150 150 151 151 150 148 146 143 140 136 134 135 137 140 146 154 166 182 201 215 223 227 229 227 225 222
115 103 80 48 46 55 74 80 79 76 75 75 70 65 64 64 60 51 40 35 32 30 27 22 21 21 23 23 26 29 32 31 22 286 234 222 215 206 197 188 180 174 169 165 162 159 157 154 152 150 150 149 147 146 145 144 144 143 143 143 143 144 144 144 143 141 139 137 135 134 134 136 140 145 152 162 176 191 205 215 222 227 229 230 229 226
93 89 90 70 61 61 63 74 81 83 81 76 68 63 60 61 60 53 43 40 39 36 31 27 25 24 25 25 32 38 42 45 46 47 49 65 109 143 151 152 150 147 146 144 143 142 141 140 140 139 139 138 137 136 134 133 132 132 131 131 131 132 132 132 132 131 130 131 132 133 135 138 142 148 158 171 186 199 209 214 219 224 229 232 232 230
78 67 74 74 72 70 67 68 79 86 88 78 70 63 60 58 56 53 46 43 42 40 36 33 30 29 28 28 36 41 46 49 52 54 55 59 63 69 79 92 104 112 118 122 124 126 127 127 128 129 129 128 127 126 125 123 122 122 121 121 122 122 122 123 123 124 125 127 129 132 135 138 144 151 163 179 194 205 211 214 217 221 228 233 235 235
78 62 67 74 76 74 70 63 68 80 93 90 81 72 64 60 56 54 50 46 43 41 41 39 37 34 31 30 35 40 45 49 53 56 59 61 63 65 69 73 79 85 94 100 106 111 115 117 119 120 121 120 120 120 118 118 117 117 117 118 118 119 119 120 121 122 124 126 129 132 135 139 145 154 168 185 199 208 213 214 215 218 227 234 239 241
105 90 77 84 86 81 71 57 48 56 86 103 101 92 81 70 62 58 53 48 42 38 39 41 40 38 32 30 32 37 42 48 52 55 58 61 64 67 69 71 74 77 81 86 91 97 103 108 111 114 116 116 116 115 115 115 115 116 116 117 118 119 121 122 124 126 128 130 133 135 138 143 150 159 173 189 202 210 215 215 215 218 225 234 241 246
116 113 97 97 104 105 94 67 42 33 58 96 107 108 104 94 81 68 57 47 38 33 35 42 44 42 34 28 29 34 43 51 54 56 58 61 64 67 70 72 74 76 79 81 85 89 94 99 104 108 111 113 113 113 112 113 114 115 116 118 120 122 124 127 129 131 135 137 139 142 145 150 158 166 177 190 201 210 216 219 220 222 227 236 243 249
110 113 109 97 98 105 108 98 70 46 58 82 93 102 109 110 104 90 71 54 40 30 32 42 48 47 38 29 28 32 41 52 57 60 60 60 65 70 71 73 75 78 80 81 83 86 89 94 98 102 106 108 109 110 111 111 113 115 117 120 122 125 127 130 133 137 140 143 146 150 153 158 165 171 179 188 197 206 215 221 226 231 236 243 248 252
108 109 108 101 88 82 91 100 100 94 91 90 83 74 71 91 106 108 99 83 62 42 37 40 45 48 44 34 29 31 39 49 52 54 55 56 60 65 66 68 72 76 78 80 82 85 88 91 94 98 101 104 106 108 109 111 114 116 119 121 124 126 129 133 137 141 145 149 153 156 159 164 168 173 178 185 193 202 211 219 228 236 243 250 253 254
119 117 111 111 105 96 91 96 105 113 115 108 100 84 50 32 77 107 112 109 100 83 67 54 48 45 45 38 33 34 42 51 52 51 49 49 50 53 57 59 61 64 69 73 77 80 85 88 92 96 99 102 104 106 108 111 114 117 120 122 125 128 131 136 140 145 150 154 157 160 163 165 168 171 175 182 190 198 207 215 224 234 241 249 252 253
118 118 115 116 119 122 126 129 132 137 149 144 139 136 131 101 88 97 105 108 109 108 102 85 64 49 39 34 29 33 46 57 59 58 53 47 43 44 52 55 54 53 54 58 60 64 71 78 86 94 99 101 103 105 107 111 115 118 120 123 126 129 133 138 144 149 153 156 159 160 162 163 165 169 174 182 191 199 208 214 222 229 236 242 246 248
122 122 119 122 129 141 149 151 154 159 168 160 144 135 130 124 115 108 104 104 106 109 106 94 81 63 40 29 22 23 41 63 67 64 59 50 40 37 50 63 63 57 55 53 50 46 45 48 58 79 94 100 102 104 106 111 115 119 121 124 128 132 137 142 147 151 155 157 159 160 160 162 165 169 177 187 197 205 211 217 223 229 233 237 240 242
135 136 135 141 148 155 162 162 161 159 150 131 121 119 118 122 124 122 117 117 120 119 107 94 85 71 44 25 14 11 26 65 78 74 67 53 37 27 37 65 68 63 58 57 51 43 37 35 31 34 58 92 100 102 106 113 119 122 124 127 131 135 140 145 150 154 157 159 161 162 164 166 170 176 186 197 205 213 217 222 226 230 233 235 236 238
141 142 145 150 155 161 167 165 157 144 128 123 126 131 134 138 138 135 129 131 135 134 123 109 98 80 43 15 3 1 19 68 84 85 82 63 37 20 22 61 72 68 58 57 50 40 31 32 27 23 30 78 96 104 107 115 121 124 126 129 133 138 145 150 154 157 160 163 166 169 172 175 180 187 197 207 214 221 225 228 230 232 234 234 235 236
139 143 146 148 153 158 162 157 144 135 132 134 139 143 146 146 143 139 135 139 140 140 138 127 120 113 98 18 345 341 356 70 92 95 91 77 44 15 10 57 77 76 64 56 48 38 29 28 24 23 29 57 76 92 100 108 115 121 125 128 134 140 147 154 159 163 166 170 175 179 184 188 193 199 207 215 222 227 230 232 234 235 235 235 235 235
146 150 149 149 153 156 158 155 145 137 138 140 142 140 133 131 131 134 138 143 145 143 138 122 119 125 133 146 202 281 311 88 105 106 98 88 59 14 7 60 82 85 76 63 50 37 32 25 24 32 48 57 69 83 95 101 111 120 126 131 138 147 155 163 169 173 178 182 187 192 197 200 205 210 217 223 227 231 234 235 236 236 237 236 236 235
160 162 157 156 155 156 159 162 159 154 152 152 147 140 128 123 125 129 138 143 143 138 129 118 112 115 124 135 150 179 284 116 112 108 101 96 78 28 5 72 93 94 87 76 60 42 28 16 35 57 75 82 94 106 114 121 127 133 138 146 154 163 172 180 185 189 192 196 200 204 208 212 215 220 224 229 232 235 236 237 238 238 238 237 237 237
163 168 168 159 152 153 163 170 169 164 161 156 149 142 138 137 137 137 141 135 125 115 109 109 111 113 113 119 125 130 273 99 100 100 98 98 86 46 2 81 104 107 100 94 78 53 31 16 18 48 98 122 135 143 149 152 154 158 162 168 176 183 189 193 196 199 201 203 207 210 214 217 222 226 230 233 236 237 238 239 239 239 239 240 240 240
162 172 176 158 152 155 166 173 170 165 159 151 145 141 142 143 145 147 149 140 130 118 108 106 115 122 125 129 132 136 138 106 107 106 102 96 82 51 8 65 107 113 112 110 102 81 52 39 1 1 104 126 135 144 154 160 167 175 181 187 192 197 200 201 203 203 204 205 208 211 215 219 224 228 232 235 237 238 239 240 241 241 241 242 243 244
153 161 157 144 145 151 156 158 160 159 156 152 150 150 152 153 154 155 154 148 140 130 116 111 109 109 110 117 121 123 23 107 122 124 113 108 102 87 11 24 99 113 115 114 110 96 67 52 29 33 75 95 102 111 123 147 170 185 195 201 204 206 207 207 206 205 204 205 206 209 214 219 224 228 232 235 237 239 240 241 243 244 245 246 247 247
104 118 116 109 111 118 127 135 143 149 151 152 153 154 153 153 154 154 153 144 130 117 106 100 93 88 86 95 96 86 33 33 103 117 111 118 126 133 85 57 105 112 112 111 107 97 75 56 34 25 37 65 73 77 90 138 207 218 216 216 214 212 210 207 205 203 202 202 204 208 212 218 223 228 231 234 237 240 243 245 247 248 250 250 250 250
70 81 87 85 86 92 103 117 126 130 131 124 114 106 105 111 115 115 113 108 106 105 105 102 96 90 86 91 89 73 30 8 17 88 106 119 128 135 141 158 136 125 116 111 115 119 106 80 43 15 11 25 40 93 190 219 228 230 227 223 217 211 206 202 200 198 198 200 203 206 211 216 222 227 232 236 240 244 247 249 251 253 253 252 252 252
72 76 80 86 96 103 110 117 120 119 112 103 94 90 89 89 88 86 85 91 100 108 114 112 110 108 110 113 108 86 21 358 349 49 107 115 122 130 147 167 146 133 126 130 141 142 124 112 86 31 11 0 329 259 221 216 218 220 221 216 210 203 197 194 193 193 194 196 200 204 208 214 221 228 235 240 245 249 253 254 254 254 254 253 253 253
89 93 97 103 109 114 119 122 123 122 120 116 112 108 105 101 98 96 97 105 117 125 127 123 124 127 130 130 135 144 121 355 344 14 107 119 128 136 155 172 144 128 127 133 143 142 126 120 106 68 35 4 326 287 234 215 210 208 207 202 196 190 187 186 187 187 188 191 194 199 207 216 226 235 242 248 251 254 256 255 255 254 253 253 253 254
90 95 100 106 111 116 121 123 125 125 124 124 124 124 121 116 114 115 122 135 143 143 138 135 135 136 135 138 143 143 127 46 355 356 67 118 128 138 157 158 137 120 116 112 124 131 122 115 103 79 47 11 341 320 256 214 199 193 190 185 181 179 178 179 180 180 180 182 188 197 210 224 236 244 250 253 255 255 255 254 254 253 252 250 250 252
76 81 88 98 107 114 120 124 127 128 129 129 130 131 130 128 130 136 149 153 152 146 139 140 140 139 139 144 137 111 41 340 308 308 317 105 117 130 148 141 126 115 110 98 82 82 92 94 86 65 21 5 350 343 334 344 166 170 169 167 165 165 165 167 168 168 166 169 180 199 223 239 248 252 254 255 255 255 254 253 253 252 248 238 221 215
59 61 64 72 84 97 109 117 125 130 132 133 133 132 130 129 138 147 154 152 147 140 135 133 128 123 118 113 94 62 1 283 251 224 196 95 103 118 135 127 122 118 117 107 83 58 55 64 67 55 12 12 13 9 0 13 26 65 114 137 139 137 136 135 136 138 138 143 164 204 240 252 255 256 256 255 255 254 254 253 252 248 230 192 180 204
52 50 48 47 51 59 71 85 108 123 127 124 121 114 97 94 116 136 144 147 145 140 134 124 116 111 110 100 84 58 290 241 213 182 152 107 108 122 134 131 137 146 139 125 110 80 35 46 77 78 47 29 22 13 0 7 8 13 29 78 99 104 105 98 96 95 96 100 109 208 261 265 264 261 260 259 257 257 256 256 251 235 154 155 174 216
57 54 49 42 39 38 38 38 53 77 92 85 78 70 60 61 79 108 129 139 140 137 133 129 128 129 132 125 126 150 217 204 181 165 150 113 114 132 146 144 153 206 212 130 127 127 134 152 126 95 62 39 23 5 354 0 3 4 6 25 47 72 84 79 74 70 68 68 62 44 349 301 284 276 272 270 268 267 266 265 258 234 160 168 194 228
65 62 58 52 47 45 43 42 42 45 50 47 45 45 49 54 62 73 89 105 116 122 127 130 133 135 137 134 142 159 180 165 163 162 151 120 110 124 144 138 137 122 350 44 101 128 140 149 143 115 60 41 25 8 352 3 4 4 0 17 30 48 67 65 62 57 52 47 43 34 18 353 330 313 305 298 292 288 285 284 279 264 195 189 208 230
69 66 61 58 55 53 51 50 48 48 45 41 39 40 43 47 51 54 55 59 76 100 119 128 131 131 122 112 115 126 138 147 161 162 152 128 113 120 135 130 125 110 56 36 46 78 110 125 131 129 85 44 33 23 1 1 4 6 0 22 28 34 46 51 50 44 36 27 20 13 4 356 345 336 331 324 317 312 309 306 304 301 284 235 226 237
70 67 63 61 58 56 54 51 50 50 47 44 40 38 38 42 46 49 51 52 58 74 103 124 134 137 134 122 115 116 134 174 168 161 143 124 114 119 126 133 133 126 109 74 56 56 68 83 107 121 112 75 37 24 1 330 343 352 345 347 3 23 26 38 39 32 1 352 338 327 330 329 331 332 332 329 326 324 323 321 318 315 311 297 275 259
69 65 60 59 59 58 56 54 53 51 49 44 39 36 37 41 45 49 52 54 57 62 71 95 120 136 143 139 139 148 177 193 175 160 131 120 115 115 115 136 142 139 131 120 105 88 75 66 97 122 116 109 80 349 306 286 301 309 288 262 237 215 190 114 132 224 251 255 252 250 255 264 285 305 316 321 324 326 327 325 323 320 316 310 302 291
69 64 58 57 58 61 60 58 56 55 51 45 38 35 37 42 46 50 53 58 64 68 70 70 79 99 125 136 143 152 167 174 164 150 126 119 115 116 116 139 145 141 132 132 126 118 107 89 91 107 111 118 133 206 277 297 312 307 272 249 230 211 197 192 190 195 206 225 235 235 231 230 238 259 288 315 322 325 326 325 322 319 315 312 307 301
74 69 60 57 59 63 65 61 58 56 53 46 40 39 41 46 49 51 54 55 62 69 73 69 65 64 65 86 107 120 130 127 119 111 103 104 107 111 118 138 145 141 134 138 137 131 114 104 93 89 97 122 150 182 220 291 333 329 279 243 217 202 201 200 196 193 195 214 226 230 227 223 233 256 280 311 321 324 324 322 319 316 314 311 308 304
79 75 65 58 58 60 64 60 57 54 51 48 46 48 51 56 57 56 58 56 59 63 69 66 64 61 58 64 68 70 75 74 72 71 71 78 91 103 114 120 126 131 130 138 139 135 125 123 123 128 135 163 183 182 171 156 178 261 265 250 227 206 204 204 202 199 201 216 230 243 242 237 245 262 279 301 312 318 318 315 313 313 313 311 308 305
83 81 71 61 56 56 60 59 53 46 39 42 50 59 65 66 65 63 61 61 61 63 67 70 70 66 60 60 60 60 59 56 53 52 52 59 76 97 111 114 114 112 106 116 121 125 128 133 142 151 158 167 186 212 198 179 197 221 244 266 277 257 230 209 203 200 201 209 232 256 270 264 260 261 266 280 299 311 312 308 308 310 312 313 309 305
87 83 74 63 55 53 57 55 49 33 14 20 35 51 59 62 62 61 60 62 63 64 68 72 73 71 64 59 55 51 48 44 41 40 41 43 57 87 108 114 117 118 109 97 101 110 117 124 130 136 139 144 156 173 198 207 210 208 200 204 284 272 248 214 195 185 180 184 204 234 261 264 263 262 265 276 288 295 298 298 301 302 304 303 302 304
92 85 72 57 50 50 56 50 36 23 17 22 27 32 35 43 48 54 54 54 53 53 59 68 70 68 61 56 52 47 43 39 37 37 37 36 49 72 94 106 113 115 108 88 82 88 102 109 112 113 117 129 141 156 178 205 216 210 175 179 226 248 252 231 186 150 156 180 200 222 254 282 294 300 293 294 285 275 273 277 281 284 285 271 258 263
95 87 70 47 32 24 16 7 15 26 37 42 40 33 23 22 28 39 47 43 38 34 35 51 64 65 59 47 41 38 39 35 34 36 40 42 50 64 80 90 99 103 100 84 72 68 80 100 111 121 135 135 139 148 186 213 223 209 123 183 231 269 286 282 280 133 159 222 236 250 284 299 307 308 302 296 284 273 268 268 273 278 281 263 231 219
82 73 47 21 1 350 351 11 22 29 36 42 40 31 15 11 18 39 57 57 49 39 34 46 62 71 69 54 39 30 31 30 32 36 42 47 55 63 72 77 83 90 98 93 84 69 58 79 99 122 148 143 145 157 188 211 241 257 228 201 194 304 313 298 297 297 297 289 284 290 304 307 303 296 295 292 286 278 273 275 279 282 284 279 264 245
81 66 24 1 355 6 24 31 31 32 42 47 42 27 7 3 14 41 69 69 61 46 31 37 57 69 73 68 58 46 37 32 33 37 45 54 62 70 72 71 71 77 93 103 105 99 77 72 73 90 122 124 137 162 192 214 237 250 249 221 193 184 210 260 290 314 329 320 314 311 309 313 312 308 303 296 289 282 276 274 275 277 277 272 267 261
85 64 32 20 23 30 39 35 32 33 45 52 45 27 0 354 9 40 78 82 71 52 36 48 65 71 69 70 68 61 47 38 38 40 40 45 53 61 68 69 69 72 83 100 113 120 116 126 167 240 46 89 116 154 191 208 228 244 253 243 223 213 226 257 286 307 308 309 305 304 308 321 325 321 311 304 298 290 281 278 276 276 275 271 266 262
62 49 36 33 37 42 42 30 28 35 47 47 38 22 356 355 15 48 71 81 79 64 33 45 70 85 92 95 87 71 62 56 48 40 33 30 30 35 45 56 63 69 77 93 114 131 142 160 172 170 103 71 69 196 207 207 218 239 265 284 304 307 295 295 293 286 282 291 293 296 310 336 339 324 308 307 304 298 282 271 267 268 272 272 269 264
62 60 54 51 49 43 30 20 26 40 52 42 26 4 346 358 38 59 63 70 76 75 54 52 67 83 96 101 96 89 92 87 72 53 37 30 27 28 34 44 53 60 68 76 89 115 145 159 158 150 132 118 76 289 275 243 221 226 252 286 318 328 308 294 287 284 280 275 278 288 320 351 343 317 303 304 303 299 288 271 260 257 260 264 265 264
70 69 67 68 64 53 33 28 37 50 59 47 26 2 350 37 75 75 68 63 68 72 65 64 70 76 79 78 86 99 107 103 93 75 58 38 33 32 36 40 45 47 46 47 51 60 78 135 147 146 143 144 161 227 271 273 249 220 237 270 301 295 277 278 282 285 285 267 263 264 290 320 310 303 304 307 306 303 300 287 271 260 256 258 258 258
65 66 64 70 70 65 53 50 59 70 78 66 45 23 12 55 72 76 76 71 67 68 70 78 84 87 85 84 91 101 105 102 95 81 62 36 24 26 35 36 30 21 12 9 12 19 33 45 139 169 167 159 161 174 216 239 243 243 304 340 290 248 260 274 281 284 280 270 263 254 236 243 257 274 293 303 304 304 305 299 287 271 262 258 254 253
57 57 55 62 68 70 69 73 84 93 101 95 83 65 46 47 49 53 62 64 65 70 78 92 98 99 98 97 96 97 99 98 92 81 68 52 40 36 35 33 29 24 15 3 0 1 10 12 358 286 208 187 177 171 173 187 185 57 21 342 243 225 241 265 273 275 269 268 264 257 245 247 251 258 273 293 299 301 303 301 294 280 270 266 260 254
58 55 54 57 63 71 78 95 112 118 123 118 109 97 80 66 54 50 50 56 63 71 80 91 100 105 108 106 99 93 95 101 102 103 102 99 80 65 52 50 48 46 41 17 6 5 14 15 6 348 298 213 193 179 160 158 142 95 7 297 257 230 231 253 261 263 261 265 263 259 250 251 256 263 276 293 299 301 301 300 295 284 273 268 264 260